www.pogodaiklimat.ru
ПОГОДА в Ниамее
Время
(UTC), дата
12 15.10
15 15.10
18 15.10
21 15.10
00 16.10
03 16.10
06 16.10
09 16.10
12 16.10
15 16.10
18 16.10
21 16.10
00 17.10
03 17.10
06 17.10
09 17.10
12 17.10
15 17.10
18 17.10
21 17.10
00 18.10
03 18.10
06 18.10
09 18.10
12 18.10
15 18.10
18 18.10
21 18.10
00 19.10
03 19.10
06 19.10
09 19.10
12 19.10
15 19.10
18 19.10
21 19.10
00 20.10
03 20.10
06 20.10
09 20.10
12 20.10
15 20.10
18 20.10
21 20.10
00 21.10
03 21.10
06 21.10
09 21.10
12 21.10
15 21.10
18 21.10
21 21.10
00 22.10
03 22.10
06 22.10
09 22.10
Ветер
(напр.,м/с)
Видим. Явления Облачность Т
(С)
Тd
(С)
f
(%)
Тe
(С)
Тes
(С)
Комфортность P
(гПа)
Po
(гПа)
Тmin
(С)
Tmax
(С)
R
(мм)
R24
(мм)
S
(см)
Ю 8 10 км 9/1 1000 м
[Cu hum Ac cast Ci sp]
+35.0 +21.4 45 +43 +44 опасность
перегрева
1010.7 986.2
Ю 4 10 км 9/1 1000 м
[Cu hum Ac cast Ci sp]
+37.5 +20.1 36 +43 +46 опасность
перегрева
1008.0 983.6
С 2 6000 м пыль 6/0
[Ci sp]
+36.2 +21.2 42 +44 +44 опасность
перегрева
1008.1 983.6 +38.0
Ю 4 8000 м пыль 6/0
[Ci sp]
+32.8 +22.8 56 +43 +43 опасность
перегрева
1010.3 985.8
Ю 2 10 км 8/0
[Ac cast Ci sp]
+30.6 +22.8 63 +40 +40 очень
душно
1010.0 985.8
Ю 6 10 км 8/0
[Ac cast Ci sp]
+28.8 +23.4 73 +39 +39 очень
душно
1009.2 984.8
Ю 6 10 км 8/0
[Ac cast Ci sp]
+27.6 +22.4 73 +36 +36 очень
душно
1009.7 985.2 +27.4
Ю 8 10 км 6/0
[Ci sp]
+31.6 +21.4 55 +40 +41 очень
душно
1012.0 987.5
ЮЗ 6 10 км 6/0
[Ci sp]
+35.6 +20.8 42 +42 +49 опасность
перегрева
1009.9 985.5
СЗ 10 10 км 6/1 1200 м
[Cu med, cong Ci sp]
+37.8 +19.6 35 +43 +43 опасность
перегрева
1007.4 983.0
В 6 10 км 6/1 1500 м
[Cb calv Ci sp]
+36.5 +20.1 38 +42 +42 опасность
перегрева
1007.9 983.4 +38.0
ЮВ 6 10 км 6/0
[Ci sp]
+34.0 +20.1 44 +40 +40 очень
душно
1010.5 986.0
Ю 4 10 км 6/0
[Ci sp]
+30.8 +20.8 55 +38 +38 очень
душно
1009.3 984.9
Ю 6 10 км 8/0
[Ac cast Ci sp]
+29.6 +20.4 58 +36 +36 очень
душно
1008.5 984.2
Ю 6 10 км 8/0
[Ac cast Ci sp]
+28.6 +21.2 64 +36 +36 очень
душно
1009.2 984.8 +27.6
З 10 10 км 6/0
[Ci sp]
+32.2 +20.7 51 +39 +40 очень
душно
1010.5 986.0
штиль 0 10 км 9/0
[Cs]
+36.5 +20.7 40 +43 +63 опасность
перегрева
1009.0 984.6
В 8 10 км 9/1 1200 м
[Cu hum Cs]
+38.4 +19.6 34 +44 +45 опасность
перегрева
1006.5 982.2
В 4 10 км 9/3 1000 м
[Cb cap Ac cast Cs]
+36.6 +19.4 37 +42 +42 опасность
перегрева
1006.6 982.2 +38.6
Ю 6 10 км 9/0
[Cs]
+33.4 +21.9 51 +42 +42 опасность
перегрева
1009.8 985.4
Ю 12 10 км 9/0
[Cs]
+31.0 +22.3 60 +40 +40 очень
душно
1009.4 985.1
Ю 12 10 км 9/0
[Cs]
+28.8 +23.4 73 +39 +39 очень
душно
1008.5 984.1
Ю 8 10 км 9/0
[Cs]
+27.0 +21.7 73 +35 +35 очень
душно
1008.7 984.2 +26.8
штиль 0 8000 м пыль 9/0
[Cs]
+31.2 +21.2 55 +39 +49 очень
душно
1010.2 985.7
Ю 4 8000 м пыль 9/0
[Cs]
+36.6 +20.6 39 +43 +53 опасность
перегрева
1008.5 984.2
СВ 8 10 км 6/1 1200 м
[Cu med, cong Ac cast Ci sp]
+38.4 +21.5 38 +46 +47 опасность
перегрева
1006.2 981.9
С 6 10 км 8/3 600 м
[Sc Ac cast Ci sp]
+33.5 +28.3 74 +55 +55 опасность
перегрева
1007.5 982.9 +38.6
ЮВ 2 8000 м пыль 6/0
[Ci sp]
+32.0 +23.8 62 +43 +43 опасность
перегрева
1009.3 984.8
ЮВ 6 10 км 6/0
[Ci sp]
+30.4 +23.6 67 +41 +41 опасность
перегрева
1009.0 984.6
Ю 6 10 км 6/0
[Ac cast Ci sp]
+29.2 +22.2 66 +38 +38 очень
душно
1007.7 983.4
ЮЗ 6 8000 м пыль 9/0
[Ac cast Ci sp]
+28.0 +22.2 71 +37 +37 очень
душно
1009.3 984.7 +27.6
З 6 10 км 9/0
[Ac cast Ci sp]
+32.2 +24.1 62 +44 +46 опасность
перегрева
1010.7 986.2
З 8 10 км 6/0
[Ci sp]
+36.8 +21.2 40 +44 +47 опасность
перегрева
1009.1 984.7
Ю 4 10 км 9/3 1000 м
[Cb cap Ci sp]
+39.0 +18.1 30 +43 +46 опасность
перегрева
1006.5 982.1
Ю 6 8000 м пыль 9/1 1200 м
[Cb cap Ac cast Ci sp]
+35.0 +18.4 38 +39 +39 очень
душно
1007.3 982.8 +39.5
Ю 4 10 км 8/0
[Ac cast Ci sp]
+31.0 +19.6 51 +37 +37 очень
душно
1009.6 985.0
ЮВ 4 10 км 6/0
[Ac cast Ci sp]
+29.5 +20.0 57 +36 +36 очень
душно
1008.8 984.4
Ю 2 10 км 6/0
[Ac cast Ci sp]
+28.5 +20.3 61 +35 +35 очень
душно
1007.5 983.2
ЮЗ 6 10 км 6/0
[Ac cast Ci sp]
+28.0 +19.9 61 +34 +34 очень
душно
1008.4 983.9 +27.5
З 8 10 км 6/0
[Ci sp]
+32.4 +19.9 48 +39 +40 очень
душно
1010.8 986.2
ЮЗ 8 10 км 6/1 1000 м
[Cu hum Ci sp]
+36.6 +21.0 40 +43 +46 опасность
перегрева
1009.3 984.9
Ю 2 10 км гроза без осадков 8/4 1000 м
[Cb cap Ac cast Ci sp]
+37.2 +19.5 36 +42 +46 опасность
перегрева
1007.9 983.5
З 2 6000 м пыль {гроза} 8/3 1000 м
[Cb cap Ci sp]
+35.0 +18.5 38 +39 +39 очень
душно
1008.1 983.6 +38.5
Ю 4 8000 м пыль 6/0
[Ci sp]
+32.0 +20.2 50 +39 +39 очень
душно
1009.9 985.4
Ю 6 10 км 8/0
[Ac cast Ci sp]
+30.4 +20.6 56 +37 +37 очень
душно
1009.6 985.2
ЮЗ 4 10 км 8/0
[Ac cast Ci sp]
+28.8 +21.1 63 +36 +36 очень
душно
1008.4 984.0
Ю 2 10 км 8/0
[Ac cast Ci sp]
+28.0 +19.6 60 +34 +34 очень
душно
1009.9 985.4 +27.8
ЮЗ 8 10 км 6/0
[Ci sp]
+32.5 +20.2 48 +39 +40 очень
душно
1011.7 987.1
Ю 4 6000 м пыль 4/1 1000 м
[Cu hum Ci sp]
+37.0 +19.6 36 +42 +52 опасность
перегрева
1009.3 984.9
ЮЗ 4 10 км 9/5 900 м
[Cu med, cong Ci sp]
+39.0 +16.0 26 +41 +43 опасность
перегрева
1007.4 983.1
штиль 0 10 км 6/0
[Ac cast Ci sp]
+36.5 +16.4 30 +39 +39 очень
душно
1008.7 984.2 +39.5
ЮВ 2 6000 м пыль 6/0
[Ci sp]
+34.0 +18.2 39 +38 +38 очень
душно
1010.7 986.2
Ю 2 10 км 6/0
[Ci sp]
+30.6 +21.2 57 +38 +38 очень
душно
1010.2 985.8
штиль 0 10 км 6/0
[Ci sp]
+28.2 +20.8 64 +35 +35 очень
душно
1009.4 985.0
штиль 0 6000 м пыль 6/0
[Ci sp]
+26.6 +20.6 70 +33 +33 очень
душно
1010.0 985.5 +25.4
штиль 0 5000 м пыль 6/0
[Ci sp]
+34.5 +19.5 41 +40 +51 опасность
солнечного
удара
1011.6 987.2
Местоположение метеостанции Ниамей (Нигер): широта 13.48 долгота 2.17 высота над уровнем моря 227 м.
В архиве по умолчанию представлена погода в Ниамее за последнюю неделю. Архивные данные за месяц целиком и за предыдущие месяцы, начиная с января 2011 года, Вы можете получить, выбрав интересующий диапазон дат из раскрывающегося списка и нажав кнопку "Найти!".
*Определитесь, кто Вы:
Внимание! Время в таблицах - всемирное. Для получения местного времени необходимо прибавить поправку, которая равна 1 ч.
Смотрите также архив погоды в соседних городах и на ближайших метеорологических станциях:
Партнеры нашего сайта:      
Пояснения к столбцам:
  • Ветер - указаны скорость ветра в м/с - средняя за 10 мин, порывы в срок и между сроками (в фигурных скобках) и направление, откуда дует ветер: С - северный,
  • СВ - северо-восточный, В - восточный, ЮВ - юго-восточный, Ю - южный, ЮЗ - юго-западный, З - западный, СЗ - северо-западный.
  • Видимость - горизонтальная дальность видимости в метрах или километрах. При видимости от 1 до 10 км при отсутствии осадков обычно наблюдается дымка, при ухудшении видимости до 1 км и менее - туман. В сухую погоду видимость может ухудшаться дымом, пылью или мглою.
  • Явления - указаны атмосферные явления, наблюдавшиеся в срок или в последний час перед сроком; фигурными скобками обозначены явления, наблюдавшиеся между сроками (за 1-3 часа до срока); квадратными скобками обозначены град или гололедные отложения с указанием их диаметра в мм.
  • Облачность - указаны через наклонную черту общая и нижняя облачность в баллах и высота нижней границы облаков в метрах; квадратными скобками обозначены формы облаков: Ci - перистые, Cs - перисто-слоистые, Cc - перисто-кучевые, Ac - высококучевые, As - высокослоистые, Sc - слоисто-кучевые, Ns - слоисто-дождевые, Cu - кучевые, Cb - кучево-дождевые. Подробнее классификацию облаков см. в Атласе облаков (PDF).
  • T - Температура воздуха - температура, измеренная на высоте 2 м над землей.
  • Td - Температура точки росы - температура, при понижении до которой содержащийся в воздухе водяной пар достигнет насыщения.
  • f - Относительная влажность воздуха - влажноcть воздуха, измеренная на высоте 2 м над землей.
  • Te - Эффективная температура - температура, которую ощущает одетый по сезону человек в тени. Характеристика душности погоды. При расчете учитывается влияние влажности воздуха и скорости ветра на теплоощущения человека.
  • Tes - Эффективная температура на солнце - температура, которую ощущает человек, с поправкой на солнечный нагрев. Характеристика знойности погоды. Зависит от высоты солнца над горизонтом, облачности и скорости ветра. Ночью, в пасмурную погоду, а также при ветре 12 м/с и более поправка равна нулю.
  • P - Атмосферное давление - приведенное к уровню моря атмосферное давление.
  • Po - Атмосферное давление - измеренное на уровне метеостанции атмосферное давление.
  • Tmin - Минимальная температура - минимум температуры воздуха на высоте 2 м над землей.
  • Tmax - Максимальная температура - максимум температуры воздуха на высоте 2 м над землей.
  • R - Количество осадков - Количество выпавших осадков за период времени, мм. При наведении курсора мыши на число - период времени, за который выпало указанное количество осадков.
  • R24 - Количество осадков - Количество выпавших осадков за 24 часа, мм.
  • S - Снежный покров - Высота снежного покрова, см. При наведении курсора мыши на число - состояние снежного покрова и степень покрытия местности в баллах.